TimeEDT,TemperatureF,Dew PointF,Humidity,Sea Level PressureIn,VisibilityMPH,Wind Direction,Wind SpeedMPH,Gust SpeedMPH,PrecipitationIn,Events,Conditions,WindDirDegrees,DateUTC
12:15 AM,33.6,9.7,37,29.98,10.0,NNW,5.8,-,N/A,,Clear,330,2013-03-22 04:15:00
12:35 AM,33.3,9.3,37,29.98,10.0,NNW,8.1,-,N/A,,Clear,330,2013-03-22 04:35:00
12:55 AM,32.7,9.7,38,29.99,10.0,NNW,4.6,-,N/A,,Clear,330,2013-03-22 04:55:00
1:15 AM,32.2,10.4,40,29.99,10.0,NNW,5.8,-,N/A,,Clear,330,2013-03-22 05:15:00
1:35 AM,32.0,10.9,42,30.00,10.0,Calm,Calm,-,N/A,,Clear,0,2013-03-22 05:35:00
1:55 AM,30.9,12.2,46,30.00,10.0,Calm,Calm,-,N/A,,Clear,0,2013-03-22 05:55:00
2:15 AM,31.1,12.4,46,30.00,10.0,NNW,5.8,-,N/A,,Clear,340,2013-03-22 06:15:00
2:35 AM,31.1,11.3,44,29.99,10.0,NNW,4.6,-,N/A,,Clear,340,2013-03-22 06:35:00
2:55 AM,31.1,12.2,46,29.99,10.0,NNW,6.9,16.1,N/A,,Clear,340,2013-03-22 06:55:00
3:15 AM,31.1,11.7,45,30.00,10.0,Calm,Calm,-,N/A,,Clear,0,2013-03-22 07:15:00
3:35 AM,30.4,12.7,48,30.01,10.0,Calm,Calm,-,N/A,,Clear,0,2013-03-22 07:35:00
3:55 AM,30.0,12.7,49,30.01,10.0,Calm,Calm,-,N/A,,Clear,0,2013-03-22 07:55:00
4:15 AM,29.7,12.4,49,30.01,10.0,Calm,Calm,-,N/A,,Clear,0,2013-03-22 08:15:00
4:35 AM,28.9,12.7,51,30.02,10.0,Calm,Calm,-,N/A,,Clear,0,2013-03-22 08:35:00
4:55 AM,29.1,13.1,51,30.02,10.0,Calm,Calm,-,N/A,,Clear,0,2013-03-22 08:55:00
5:15 AM,29.1,12.9,51,30.02,10.0,Calm,Calm,-,N/A,,Clear,0,2013-03-22 09:15:00
5:35 AM,28.2,13.5,54,30.03,10.0,Calm,Calm,-,N/A,,Clear,0,2013-03-22 09:35:00
5:55 AM,27.5,13.8,56,30.04,10.0,Calm,Calm,-,N/A,,Clear,0,2013-03-22 09:55:00
6:15 AM,26.6,15.4,63,30.04,10.0,Calm,Calm,-,N/A,,Clear,0,2013-03-22 10:15:00
6:35 AM,27.0,14.7,60,30.05,10.0,Calm,Calm,-,N/A,,Clear,0,2013-03-22 10:35:00
6:55 AM,27.7,14.7,58,30.07,10.0,WSW,3.5,-,N/A,,Clear,250,2013-03-22 10:55:00
7:15 AM,27.5,14.7,59,30.07,10.0,Calm,Calm,-,N/A,,Clear,0,2013-03-22 11:15:00
7:35 AM,27.5,14.2,57,30.08,10.0,West,3.5,-,N/A,,Clear,260,2013-03-22 11:35:00
7:55 AM,27.5,14.5,58,30.09,10.0,Calm,Calm,-,N/A,,Clear,0,2013-03-22 11:55:00
8:15 AM,29.3,14.2,53,30.09,10.0,Calm,Calm,-,N/A,,Clear,0,2013-03-22 12:15:00
8:35 AM,31.1,14.5,50,30.09,10.0,WNW,3.5,-,N/A,,Clear,300,2013-03-22 12:35:00
8:55 AM,32.2,14.4,48,30.10,10.0,WNW,3.5,-,N/A,,Clear,300,2013-03-22 12:55:00
9:15 AM,33.3,12.9,43,30.09,10.0,NW,5.8,-,N/A,,Clear,310,2013-03-22 13:15:00
9:35 AM,33.8,11.5,40,30.09,10.0,NW,3.5,-,N/A,,Clear,320,2013-03-22 13:35:00
9:55 AM,34.7,11.1,38,30.09,10.0,Calm,Calm,-,N/A,,Clear,0,2013-03-22 13:55:00
10:15 AM,35.4,10.4,36,30.09,10.0,NNW,3.5,-,N/A,,Clear,330,2013-03-22 14:15:00
10:35 AM,37.0,10.4,33,30.10,10.0,WNW,3.5,-,N/A,,Clear,300,2013-03-22 14:35:00
10:55 AM,37.6,9.3,31,30.09,10.0,West,5.8,-,N/A,,Clear,260,2013-03-22 14:55:00
11:15 AM,39.7,11.1,31,30.08,10.0,NNW,3.5,-,N/A,,Clear,330,2013-03-22 15:15:00
11:35 AM,40.1,9.7,29,30.08,10.0,West,5.8,-,N/A,,Clear,270,2013-03-22 15:35:00
11:55 AM,41.5,9.5,27,30.07,10.0,NW,6.9,-,N/A,,Clear,310,2013-03-22 15:55:00
12:15 PM,42.8,9.5,26,30.07,10.0,WSW,4.6,-,N/A,,Clear,250,2013-03-22 16:15:00
12:35 PM,43.7,9.5,25,30.06,10.0,SW,4.6,-,N/A,,Clear,230,2013-03-22 16:35:00
12:55 PM,45.9,10.8,24,30.06,10.0,WSW,3.5,-,N/A,,Clear,250,2013-03-22 16:55:00
1:15 PM,47.1,10.6,23,30.05,10.0,WNW,3.5,-,N/A,,Clear,300,2013-03-22 17:15:00
1:35 PM,47.1,10.8,23,30.03,10.0,NW,6.9,-,N/A,,Clear,320,2013-03-22 17:35:00
1:55 PM,47.8,9.5,21,30.03,10.0,WSW,8.1,-,N/A,,Clear,240,2013-03-22 17:55:00
2:15 PM,49.3,10.2,21,30.02,10.0,WSW,5.8,-,N/A,,Clear,240,2013-03-22 18:15:00
2:35 PM,49.6,11.5,22,30.01,10.0,West,3.5,-,N/A,,Clear,280,2013-03-22 18:35:00
2:55 PM,49.8,9.9,20,30.00,10.0,WSW,6.9,-,N/A,,Clear,250,2013-03-22 18:55:00
3:15 PM,50.9,10.6,20,29.99,10.0,Calm,Calm,-,N/A,,Clear,0,2013-03-22 19:15:00
3:35 PM,51.4,10.0,19,29.99,10.0,West,4.6,-,N/A,,Clear,270,2013-03-22 19:35:00
3:55 PM,52.9,11.1,19,29.99,10.0,West,4.6,-,N/A,,Clear,270,2013-03-22 19:55:00
4:15 PM,52.9,10.0,18,29.98,10.0,SW,3.5,-,N/A,,Clear,220,2013-03-22 20:15:00
4:35 PM,53.2,9.9,18,29.98,10.0,SW,9.2,-,N/A,,Clear,230,2013-03-22 20:35:00
4:55 PM,53.4,9.5,17,29.98,10.0,WSW,9.2,-,N/A,,Clear,250,2013-03-22 20:55:00
5:15 PM,53.2,10.8,18,29.98,10.0,West,6.9,-,N/A,,Clear,270,2013-03-22 21:15:00
5:35 PM,54.0,11.3,18,29.98,10.0,WSW,6.9,-,N/A,,Clear,250,2013-03-22 21:35:00
5:55 PM,53.6,10.2,18,29.98,10.0,WSW,8.1,-,N/A,,Clear,250,2013-03-22 21:55:00
6:15 PM,52.3,11.8,20,29.98,10.0,West,4.6,-,N/A,,Clear,260,2013-03-22 22:15:00
6:35 PM,51.8,12.2,21,29.98,10.0,WSW,4.6,-,N/A,,Mostly Cloudy,250,2013-03-22 22:35:00
6:55 PM,51.3,13.1,22,29.98,10.0,WSW,4.6,-,N/A,,Scattered Clouds,240,2013-03-22 22:55:00
7:15 PM,50.5,14.4,24,29.99,10.0,WSW,5.8,-,N/A,,Clear,240,2013-03-22 23:15:00
7:35 PM,49.8,14.2,24,29.99,10.0,WSW,3.5,-,N/A,,Clear,250,2013-03-22 23:35:00
7:55 PM,48.7,14.9,26,29.99,10.0,Calm,Calm,-,N/A,,Clear,0,2013-03-22 23:55:00
8:15 PM,48.2,15.1,27,30.00,10.0,Calm,Calm,-,N/A,,Clear,0,2013-03-23 00:15:00
8:35 PM,47.8,14.9,27,30.00,10.0,Calm,Calm,-,N/A,,Clear,0,2013-03-23 00:35:00
8:55 PM,46.9,15.8,29,30.01,10.0,Calm,Calm,-,N/A,,Clear,0,2013-03-23 00:55:00
9:15 PM,45.5,17.8,33,30.02,10.0,SSW,3.5,-,N/A,,Clear,210,2013-03-23 01:15:00
9:35 PM,45.9,19.0,34,30.02,10.0,SW,3.5,-,N/A,,Clear,230,2013-03-23 01:35:00
9:55 PM,44.4,22.1,41,30.02,10.0,Calm,Calm,-,N/A,,Clear,0,2013-03-23 01:55:00
10:15 PM,45.0,19.4,36,30.02,10.0,SW,3.5,-,N/A,,Scattered Clouds,230,2013-03-23 02:15:00
10:35 PM,44.4,21.7,41,30.03,10.0,Calm,Calm,-,N/A,,Clear,0,2013-03-23 02:35:00
10:55 PM,44.1,22.1,42,30.03,10.0,Calm,Calm,-,N/A,,Clear,0,2013-03-23 02:55:00
11:15 PM,44.1,22.6,43,30.03,10.0,Calm,Calm,-,N/A,,Mostly Cloudy,0,2013-03-23 03:15:00
11:35 PM,43.9,22.1,42,30.03,10.0,Calm,Calm,-,N/A,,Mostly Cloudy,0,2013-03-23 03:35:00
11:55 PM,42.3,23.5,48,30.03,10.0,Calm,Calm,-,N/A,,Scattered Clouds,0,2013-03-23 03:55:00